Monument Pass, CO

9:03 AM MDT on May 25, 2017 (GMT -0600)
Monument Pass

Weather History for KMNH - May, 2014

Change the Weather History Date:

Monday, May 5, 2014

  Actual Average Record
Temperature  
Mean Temperature 62 °F -  
Max Temperature 73 °F - 77 °F (2002)
Min Temperature 50 °F - 24 °F (2011)
Degree Days  
Heating Degree Days 4    
Month to date heating degree days  
Cooling Degree Days 0    
Month to date cooling degree days  
Growing Degree Days 12 (Base 50)    
Moisture  
Dew Point 16 °F    
Average Humidity 18    
Maximum Humidity 44    
Minimum Humidity 10    
Precipitation  
Precipitation 0.00 in - 0.38 in (2015)
Sea Level Pressure  
Sea Level Pressure 29.96 in    
Wind  
Wind Speed 10 mph (WSW)    
Max Wind Speed 18 mph    
Max Gust Speed 26 mph    
Visibility 10 miles    
Events      
T = Trace of Precipitation, MM = Missing Value Source: NWS Daily Summary

Daily Weather History Graph

Daily Weather History Graph

Search for Another Location

Airport or City:

Trip Planner

Search our weather history database for the weather conditions in past years. The results will help you decide how hot, cold, wet, or windy it might be!

Date:

Astronomy

May. 05, 2014 Rise Set
Actual Time 5:55 AM MDT 7:55 PM MDT
Civil Twilight 5:26 AM MDT 8:25 PM MDT
Nautical Twilight 4:50 AM MDT 9:00 PM MDT
Astronomical Twilight 4:11 AM MDT 9:39 PM MDT
Moon 11:17 AM MDT (5/5) 12:41 AM MDT (5/5)
Length of Visible Light 14h 58m
Length of Day
14h 00m
Waxing Crescent, 37% of the Moon is Illuminated
May 5
Waxing Crescent
May 6
First Quarter
May 14
Full
May 21
Last Quarter
May 28
New

Hourly Weather History & Observations

Time (MDT) Temp. Dew Point Humidity Pressure Visibility Wind Dir Wind Speed Gust Speed Precip Events Conditions
12:14 AM 51.8 °F 14.0 °F 22% 30.01 in 10.0 mi WSW 9.2 mph - N/A   Clear
12:34 AM 50.0 °F 14.0 °F 24% 30.01 in 10.0 mi WSW 9.2 mph - N/A   Clear
12:54 AM 50.0 °F 15.8 °F 26% 30.01 in 10.0 mi WSW 9.2 mph - N/A   Clear
1:14 AM 50.0 °F 15.8 °F 26% 30.00 in 10.0 mi West 10.4 mph - N/A   Clear
1:34 AM 51.8 °F 14.0 °F 22% 30.00 in 10.0 mi West 10.4 mph - N/A   Clear
1:54 AM 53.6 °F 14.0 °F 21% 29.99 in 10.0 mi West 10.4 mph - N/A   Clear
2:14 AM 53.6 °F 14.0 °F 21% 29.99 in 10.0 mi West 11.5 mph - N/A   Clear
2:33 AM 55.4 °F 12.2 °F 18% 29.99 in 10.0 mi West 15.0 mph - N/A   Clear
2:55 AM 55.4 °F 12.2 °F 18% 29.99 in 10.0 mi West 16.1 mph - N/A   Clear
3:13 AM 55.4 °F 12.2 °F 18% 29.99 in 10.0 mi West 15.0 mph - N/A   Clear
3:34 AM 53.6 °F 12.2 °F 19% 29.99 in 10.0 mi WSW 11.5 mph - N/A   Clear
3:54 AM 51.8 °F 14.0 °F 22% 29.99 in 10.0 mi WSW 9.2 mph - N/A   Clear
4:14 AM 51.8 °F 14.0 °F 22% 30.00 in 10.0 mi SW 9.2 mph - N/A   Clear
4:34 AM 53.6 °F 12.2 °F 19% 30.00 in 10.0 mi SW 8.1 mph - N/A   Clear
4:54 AM 53.6 °F 12.2 °F 19% 30.00 in 10.0 mi SW 8.1 mph - N/A   Clear
5:14 AM 51.8 °F 14.0 °F 22% 30.01 in 10.0 mi WSW 10.4 mph - N/A   Clear
5:34 AM 50.0 °F 12.2 °F 22% 30.02 in 10.0 mi West 5.8 mph - N/A   Clear
5:54 AM 50.0 °F 12.2 °F 22% 30.02 in 10.0 mi West 9.2 mph - N/A   Clear
6:14 AM 50.0 °F 14.0 °F 24% 30.02 in 10.0 mi West 10.4 mph - N/A   Clear
6:34 AM 51.8 °F 14.0 °F 22% 30.03 in 10.0 mi West 9.2 mph - N/A   Clear
6:54 AM 50.0 °F 17.6 °F 28% 30.03 in 10.0 mi WSW 8.1 mph - N/A   Clear
7:14 AM 55.4 °F 10.4 °F 17% 30.03 in 10.0 mi WSW 3.5 mph - N/A   Clear
7:34 AM 57.2 °F 17.6 °F 21% 30.03 in 10.0 mi Calm Calm - N/A   Clear
7:54 AM 59.0 °F 19.4 °F 22% 30.04 in 10.0 mi West 8.1 mph - N/A   Clear
8:14 AM 60.8 °F 15.8 °F 17% 30.04 in 10.0 mi West 11.5 mph - N/A   Clear
8:34 AM 60.8 °F 17.6 °F 19% 30.04 in 10.0 mi West 9.2 mph - N/A   Clear
8:53 AM 60.8 °F 14.0 °F 16% 30.05 in 10.0 mi WSW 10.4 mph - N/A   Clear
9:13 AM 62.6 °F 19.4 °F 19% 30.05 in 10.0 mi WSW 8.1 mph - N/A   Clear
9:34 AM 64.4 °F 14.0 °F 14% 30.05 in 10.0 mi WSW 12.7 mph - N/A   Clear
9:54 AM 66.2 °F 12.2 °F 12% 30.04 in 10.0 mi SW 12.7 mph 18.4 mph N/A   Clear
10:14 AM 66.2 °F 12.2 °F 12% 30.05 in 10.0 mi WSW 13.8 mph 18.4 mph N/A   Clear
10:34 AM 68.0 °F 12.2 °F 12% 30.04 in 10.0 mi WSW 8.1 mph 16.1 mph N/A   Clear
10:53 AM 68.0 °F 12.2 °F 12% 30.04 in 10.0 mi West 6.9 mph 11.5 mph N/A   Clear
11:14 AM 69.8 °F 12.2 °F 11% 30.04 in 10.0 mi SW 6.9 mph - N/A   Clear
11:34 AM 68.0 °F 12.2 °F 12% 30.03 in 10.0 mi South 9.2 mph 16.1 mph N/A   Clear
12:14 PM 69.8 °F 14.0 °F 12% 30.01 in 10.0 mi West 12.7 mph - N/A   Clear
12:34 PM 71.6 °F 12.2 °F 10% 30.01 in 10.0 mi West 17.3 mph 25.3 mph N/A   Clear
12:54 PM 71.6 °F 14.0 °F 11% 29.99 in 10.0 mi West 18.4 mph 26.5 mph N/A   Clear
1:14 PM 69.8 °F 14.0 °F 12% 29.98 in 10.0 mi SW 11.5 mph 20.7 mph N/A   Clear
1:34 PM 71.6 °F 14.0 °F 11% 29.97 in 10.0 mi West 17.3 mph 20.7 mph N/A   Clear
1:54 PM 71.6 °F 12.2 °F 10% 29.96 in 10.0 mi WNW 10.4 mph - N/A   Clear
2:14 PM 71.6 °F 12.2 °F 10% 29.95 in 10.0 mi SSW 6.9 mph - N/A   Clear
2:34 PM 71.6 °F 14.0 °F 11% 29.95 in 10.0 mi SE 11.5 mph 16.1 mph N/A   Clear
2:54 PM 71.6 °F 14.0 °F 11% 29.94 in 10.0 mi SE 5.8 mph 11.5 mph N/A   Clear
3:14 PM 73.4 °F 14.0 °F 10% 29.92 in 10.0 mi South 11.5 mph 24.2 mph N/A   Clear
3:34 PM 71.6 °F 12.2 °F 10% 29.91 in 10.0 mi SSE 12.7 mph 16.1 mph N/A   Clear
3:53 PM 69.8 °F 12.2 °F 11% 29.91 in 10.0 mi ESE 4.6 mph - N/A   Scattered Clouds
4:14 PM 69.8 °F 12.2 °F 11% 29.91 in 10.0 mi SSW 3.5 mph - N/A   Scattered Clouds
4:34 PM 68.0 °F 14.0 °F 12% 29.89 in 10.0 mi North 9.2 mph - N/A   Scattered Clouds
4:54 PM 69.8 °F 17.6 °F 14% 29.89 in 10.0 mi NNW 4.6 mph - N/A   Clear
5:14 PM 69.8 °F 17.6 °F 14% 29.89 in 10.0 mi North 4.6 mph - N/A   Clear
5:34 PM 69.8 °F 14.0 °F 12% 29.88 in 10.0 mi NW 5.8 mph - N/A   Scattered Clouds
5:54 PM 68.0 °F 14.0 °F 12% 29.88 in 10.0 mi Calm Calm - N/A   Scattered Clouds
6:14 PM 66.2 °F 19.4 °F 17% 29.88 in 7.0 mi WNW 6.9 mph - N/A   Scattered Clouds
6:34 PM 64.4 °F 21.2 °F 19% 29.87 in 10.0 mi West 5.8 mph - N/A   Scattered Clouds
6:54 PM 62.6 °F 23.0 °F 22% 29.88 in 10.0 mi West 8.1 mph - N/A   Clear
7:14 PM 62.6 °F 19.4 °F 19% 29.88 in 10.0 mi West 8.1 mph - N/A   Scattered Clouds
7:34 PM 62.6 °F 17.6 °F 18% 29.88 in 10.0 mi WSW 12.7 mph - N/A   Scattered Clouds
7:54 PM 64.4 °F 14.0 °F 14% 29.88 in 10.0 mi SSW 10.4 mph - N/A   Scattered Clouds
8:14 PM 64.4 °F 14.0 °F 14% 29.87 in 10.0 mi South 5.8 mph - N/A   Clear
8:34 PM 62.6 °F 14.0 °F 15% 29.87 in 10.0 mi WSW 6.9 mph - N/A   Clear
8:54 PM 59.0 °F 17.6 °F 20% 29.87 in 10.0 mi SSW 9.2 mph - N/A   Clear
9:13 PM 57.2 °F 17.6 °F 21% 29.88 in 10.0 mi SW 6.9 mph - N/A   Clear
9:34 PM 55.4 °F 19.4 °F 25% 29.89 in 10.0 mi SSE 11.5 mph - N/A   Clear
9:54 PM 57.2 °F 21.2 °F 25% 29.88 in 10.0 mi SE 10.4 mph - N/A   Clear
10:14 PM 57.2 °F 23.0 °F 27% 29.89 in 10.0 mi SSE 8.1 mph - N/A   Scattered Clouds
10:34 PM 59.0 °F 23.0 °F 25% 29.88 in 10.0 mi SE 15.0 mph 21.9 mph N/A   Scattered Clouds
10:53 PM 57.2 °F 24.8 °F 29% 29.88 in 10.0 mi SSE 12.7 mph - N/A   Clear
11:14 PM 57.2 °F 28.4 °F 33% 29.88 in 10.0 mi SSE 15.0 mph - N/A   Clear
11:34 PM 55.4 °F 30.2 °F 38% 29.88 in 10.0 mi SSE 13.8 mph - N/A   Clear
11:53 PM 53.6 °F 32.0 °F 44% 29.87 in 10.0 mi South 13.8 mph 21.9 mph N/A   Clear